Location: Ellerstadt
(49.4644°N, 8.2615°E)
Time: 23:03:24
(UTC+00:00)

Cosmos 2322 - Pass Details

Date: 03 March 2021
Orbit: 841 x 853 km, 71.0° (Epoch: 13 April)

Event Time Altitude Azimuth Distance (km) Brightness Sun altitude
Rises 19:44:17 0° 210° (SSW) 3,411 7.0 -25.0°
Reaches altitude 10° 19:46:43 10° 212° (SSW) 2,479 6.2 -25.3°
Maximum altitude 19:52:26 79° 300° (WNW) 874 3.7 -26.2°
Drops below altitude 10° 19:58:11 10° 27° (NNE) 2,492 6.1 -27.1°
Sets 20:00:39 0° 29° (NNE) 3,430 6.8 -27.4°
